Time,TemperatureF,DewpointF,PressureIn,WindDirection,WindDirectionDegrees,WindSpeedMPH,WindSpeedGustMPH,Humidity,HourlyPrecipIn,Conditions,Clouds,dailyrainin,SoftwareType,DateUTC
2015-07-29 00:12:00,75.2,75.0,29.96,South,169,0.0,0.0,100,0.00,,,0.00,weatherlink.com 1.10,2015-07-29 04:12:00,
2015-07-29 00:27:00,75.2,75.0,29.96,South,169,0.0,0.0,100,0.00,,,0.00,weatherlink.com 1.10,2015-07-29 04:27:00,
2015-07-29 00:43:00,74.9,75.0,29.96,South,169,0.0,0.0,100,0.00,,,0.00,weatherlink.com 1.10,2015-07-29 04:43:00,
2015-07-29 00:58:00,74.6,75.0,29.96,South,169,0.0,0.0,100,0.00,,,0.00,weatherlink.com 1.10,2015-07-29 04:58:00,
2015-07-29 01:12:00,74.3,74.0,29.97,South,169,0.0,0.0,100,0.00,,,0.00,weatherlink.com 1.10,2015-07-29 05:12:00,
2015-07-29 01:27:00,74.0,74.0,29.96,South,169,0.0,0.0,100,0.00,,,0.00,weatherlink.com 1.10,2015-07-29 05:27:00,
2015-07-29 01:43:00,73.9,74.0,29.96,South,169,0.0,0.0,100,0.00,,,0.00,weatherlink.com 1.10,2015-07-29 05:43:00,
2015-07-29 01:58:00,73.4,73.0,29.96,South,169,0.0,0.0,100,0.00,,,0.00,weatherlink.com 1.10,2015-07-29 05:58:00,
2015-07-29 02:13:00,73.4,73.0,29.96,South,169,0.0,0.0,100,0.00,,,0.00,weatherlink.com 1.10,2015-07-29 06:13:00,
2015-07-29 02:28:00,73.3,73.0,29.94,South,169,0.0,0.0,100,0.00,,,0.00,weatherlink.com 1.10,2015-07-29 06:28:00,
2015-07-29 02:43:00,72.8,73.0,29.94,South,169,0.0,0.0,100,0.00,,,0.00,weatherlink.com 1.10,2015-07-29 06:43:00,
2015-07-29 02:58:00,72.8,73.0,29.94,South,169,0.0,0.0,100,0.00,,,0.00,weatherlink.com 1.10,2015-07-29 06:58:00,
2015-07-29 03:13:00,72.4,72.0,29.94,South,169,0.0,0.0,100,0.00,,,0.00,weatherlink.com 1.10,2015-07-29 07:13:00,
2015-07-29 03:28:00,72.5,73.0,29.93,South,169,0.0,0.0,100,0.00,,,0.00,weatherlink.com 1.10,2015-07-29 07:28:00,
2015-07-29 03:43:00,72.4,72.0,29.93,South,169,0.0,0.0,100,0.00,,,0.00,weatherlink.com 1.10,2015-07-29 07:43:00,
2015-07-29 03:58:00,72.4,72.0,29.93,South,169,0.0,0.0,100,0.00,,,0.00,weatherlink.com 1.10,2015-07-29 07:58:00,
2015-07-29 04:13:00,72.4,72.0,29.93,South,169,0.0,0.0,100,0.00,,,0.00,weatherlink.com 1.10,2015-07-29 08:13:00,
2015-07-29 04:28:00,72.5,73.0,29.94,South,169,0.0,0.0,100,0.00,,,0.00,weatherlink.com 1.10,2015-07-29 08:28:00,
2015-07-29 04:43:00,72.5,73.0,29.94,South,169,0.0,0.0,100,0.00,,,0.00,weatherlink.com 1.10,2015-07-29 08:43:00,
2015-07-29 04:58:00,72.6,73.0,29.94,South,169,0.0,0.0,100,0.00,,,0.00,weatherlink.com 1.10,2015-07-29 08:58:00,
2015-07-29 05:13:00,72.3,72.0,29.94,South,169,0.0,0.0,100,0.00,,,0.00,weatherlink.com 1.10,2015-07-29 09:13:00,
2015-07-29 05:28:00,72.2,72.0,29.95,South,169,0.0,0.0,100,0.00,,,0.00,weatherlink.com 1.10,2015-07-29 09:28:00,
2015-07-29 05:43:00,72.0,72.0,29.95,South,169,0.0,0.0,100,0.00,,,0.00,weatherlink.com 1.10,2015-07-29 09:43:00,
2015-07-29 05:58:00,71.8,72.0,29.95,South,169,0.0,0.0,100,0.00,,,0.00,weatherlink.com 1.10,2015-07-29 09:58:00,
2015-07-29 06:28:00,71.9,72.0,29.95,South,169,0.0,0.0,100,0.00,,,0.00,weatherlink.com 1.10,2015-07-29 10:28:00,
2015-07-29 06:43:00,71.8,72.0,29.95,South,169,0.0,0.0,100,0.00,,,0.00,weatherlink.com 1.10,2015-07-29 10:43:00,
2015-07-29 06:58:00,72.2,72.0,29.95,South,169,0.0,0.0,100,0.00,,,0.00,weatherlink.com 1.10,2015-07-29 10:58:00,
2015-07-29 07:13:00,72.5,73.0,29.95,South,169,0.0,0.0,100,0.00,,,0.00,weatherlink.com 1.10,2015-07-29 11:13:00,
2015-07-29 07:28:00,72.5,73.0,29.95,South,169,0.0,0.0,100,0.00,,,0.00,weatherlink.com 1.10,2015-07-29 11:28:00,
2015-07-29 07:43:00,73.1,73.0,29.95,South,169,0.0,0.0,100,0.00,,,0.00,weatherlink.com 1.10,2015-07-29 11:43:00,
2015-07-29 07:58:00,73.4,73.0,29.95,South,169,0.0,0.0,100,0.00,,,0.00,weatherlink.com 1.10,2015-07-29 11:58:00,
2015-07-29 08:13:00,74.0,74.0,29.95,South,169,0.0,0.0,100,0.00,,,0.00,weatherlink.com 1.10,2015-07-29 12:13:00,
2015-07-29 08:28:00,76.4,76.0,29.95,SSW,201,0.0,0.0,100,0.00,,,0.00,weatherlink.com 1.10,2015-07-29 12:28:00,
2015-07-29 08:43:00,78.5,79.0,29.96,SSW,201,0.0,1.0,100,0.00,,,0.00,weatherlink.com 1.10,2015-07-29 12:43:00,
2015-07-29 08:58:00,80.5,79.0,29.98,North,350,0.0,3.0,96,0.00,,,0.00,weatherlink.com 1.10,2015-07-29 12:58:00,
2015-07-29 09:13:00,80.3,79.0,29.97,West,263,1.0,3.0,96,0.00,,,0.00,weatherlink.com 1.10,2015-07-29 13:13:00,
2015-07-29 09:28:00,82.3,80.0,29.97,North,10,2.0,5.0,92,0.00,,,0.00,weatherlink.com 1.10,2015-07-29 13:28:00,
2015-07-29 09:43:00,82.1,79.0,29.97,NW,323,0.0,2.0,90,0.00,,,0.00,weatherlink.com 1.10,2015-07-29 13:43:00,
2015-07-29 09:58:00,82.3,80.0,29.96,NNW,332,0.0,1.0,91,0.00,,,0.00,weatherlink.com 1.10,2015-07-29 13:58:00,
2015-07-29 10:13:00,82.9,79.0,29.96,NW,307,0.0,1.0,89,0.00,,,0.00,weatherlink.com 1.10,2015-07-29 14:13:00,
2015-07-29 10:43:00,85.1,80.0,29.96,WNW,297,0.0,4.0,84,0.00,,,0.00,weatherlink.com 1.10,2015-07-29 14:43:00,
2015-07-29 10:58:00,85.3,79.0,29.96,NW,317,1.0,4.0,82,0.00,,,0.00,weatherlink.com 1.10,2015-07-29 14:58:00,
2015-07-29 11:13:00,85.1,79.0,29.95,South,169,3.0,4.0,81,0.00,,,0.00,weatherlink.com 1.10,2015-07-29 15:13:00,
2015-07-29 11:28:00,85.7,79.0,29.95,WNW,301,0.0,4.0,79,0.00,,,0.00,weatherlink.com 1.10,2015-07-29 15:28:00,
2015-07-29 11:43:00,85.2,79.0,29.95,NW,307,2.0,5.0,81,0.00,,,0.00,weatherlink.com 1.10,2015-07-29 15:43:00,
2015-07-29 11:59:00,86.0,79.0,29.95,WNW,301,0.0,5.0,80,0.00,,,0.00,weatherlink.com 1.10,2015-07-29 15:59:00,